| time (UTC) | temp F | wind direction | speed MPH | gust MPH | rain 1hr in | rain 24hr in | rain mn in | humidity % | barometer mb |
| 20260507071605 | 53 | 142 | 4.0 | 6.0 | 0.00 | 0.01 | 0.00 | 64 | 880.6 |
| 20260507070105 | 52 | 138 | 2.0 | 6.0 | 0.00 | 0.01 | 0.01 | 68 | 880.7 |
| 20260507064557 | 52 | 136 | 2.0 | 8.0 | 0.00 | 0.01 | 0.01 | 71 | 880.7 |
| 20260507063053 | 52 | 154 | 0.0 | 0.0 | 0.00 | 0.01 | 0.01 | 74 | 880.7 |
| 20260507061553 | 53 | 154 | 0.0 | 5.0 | 0.00 | 0.01 | 0.01 | 69 | 880.8 |
| 20260507060050 | 53 | 135 | 3.0 | 5.0 | 0.00 | 0.01 | 0.01 | 69 | 880.7 |
| 20260507054609 | 54 | 140 | 3.0 | 7.0 | 0.00 | 0.01 | 0.01 | 67 | 880.8 |
| 20260507053102 | 54 | 100 | 4.0 | 6.0 | 0.00 | 0.01 | 0.01 | 68 | 880.8 |
| 20260507051556 | 53 | 114 | 4.0 | 8.0 | 0.00 | 0.01 | 0.01 | 72 | 880.8 |
| 20260507050054 | 53 | 142 | 3.0 | 6.0 | 0.00 | 0.01 | 0.01 | 76 | 880.7 |
| 20260507044554 | 52 | 158 | 2.0 | 5.0 | 0.00 | 0.01 | 0.01 | 78 | 880.8 |
| 20260507043047 | 53 | 134 | 3.0 | 6.0 | 0.00 | 0.01 | 0.01 | 77 | 880.7 |
| 20260507041559 | 53 | 136 | 3.0 | 5.0 | 0.00 | 0.01 | 0.01 | 75 | 880.7 |
| 20260507040045 | 54 | 113 | 4.0 | 9.0 | 0.00 | 0.01 | 0.01 | 73 | 880.6 |
| 20260507034546 | 53 | 140 | 3.0 | 8.0 | 0.00 | 0.01 | 0.01 | 75 | 880.4 |
| 20260507033045 | 53 | 119 | 4.0 | 7.0 | 0.00 | 0.01 | 0.01 | 77 | 880.3 |
| 20260507031545 | 53 | 109 | 2.0 | 5.0 | 0.00 | 0.01 | 0.01 | 78 | 880.3 |
| 20260507030044 | 53 | 101 | 3.0 | 7.0 | 0.00 | 0.01 | 0.01 | 80 | 880.2 |
| 20260507024547 | 53 | 110 | 3.0 | 7.0 | 0.00 | 0.01 | 0.01 | 86 | 880.1 |
| 20260507023043 | 55 | 114 | 3.0 | 6.0 | 0.00 | 0.01 | 0.01 | 83 | 880.0 |
| 20260507021549 | 57 | 108 | 3.0 | 6.0 | 0.00 | 0.01 | 0.01 | 80 | 880.0 |
| 20260507020059 | 58 | 128 | 5.0 | 9.0 | 0.00 | 0.01 | 0.01 | 78 | 879.9 |
| 20260507014601 | 59 | 119 | 5.0 | 10.0 | 0.00 | 0.01 | 0.01 | 76 | 879.8 |
| 20260507013047 | 60 | 145 | 6.0 | 9.0 | 0.00 | 0.01 | 0.01 | 74 | 879.8 |
| 20260507011551 | 60 | 100 | 7.0 | 12.0 | 0.00 | 0.01 | 0.01 | 72 | 879.8 |
| 20260507010045 | 61 | 167 | 6.0 | 10.0 | 0.00 | 0.01 | 0.01 | 71 | 879.8 |
| 20260507004540 | 61 | 132 | 7.0 | 12.0 | 0.00 | 0.01 | 0.01 | 69 | 879.8 |
| 20260507003039 | 61 | 123 | 6.0 | 14.0 | 0.00 | 0.01 | 0.01 | 69 | 879.8 |
| 20260507001555 | 62 | 109 | 7.0 | 14.0 | 0.00 | 0.01 | 0.01 | 67 | 879.7 |
| 20260507000048 | 62 | 129 | 7.0 | 13.0 | 0.00 | 0.01 | 0.01 | 66 | 879.5 |
| 20260506234549 | 62 | 136 | 8.0 | 16.0 | 0.00 | 0.01 | 0.01 | 65 | 879.4 |
| 20260506233041 | 62 | 164 | 9.0 | 17.0 | 0.00 | 0.01 | 0.01 | 64 | 879.4 |
| 20260506231538 | 63 | 132 | 9.0 | 16.0 | 0.00 | 0.01 | 0.01 | 62 | 879.5 |
| 20260506230037 | 63 | 133 | 9.0 | 13.0 | 0.00 | 0.01 | 0.01 | 58 | 879.5 |
| 20260506224537 | 63 | 150 | 4.0 | 11.0 | 0.00 | 0.01 | 0.01 | 57 | 879.5 |
| 20260506223038 | 63 | 98 | 6.0 | 12.0 | 0.00 | 0.01 | 0.01 | 57 | 879.8 |
| 20260506221545 | 63 | 155 | 8.0 | 13.0 | 0.00 | 0.01 | 0.01 | 59 | 879.8 |
| 20260506220042 | 63 | 135 | 6.0 | 15.0 | 0.00 | 0.01 | 0.01 | 60 | 880.0 |
| 20260506214535 | 62 | 129 | 7.0 | 15.0 | 0.00 | 0.01 | 0.01 | 62 | 879.9 |
| 20260506213042 | 63 | 115 | 8.0 | 13.0 | 0.00 | 0.01 | 0.01 | 60 | 880.0 |
| 20260506211542 | 62 | 131 | 7.0 | 15.0 | 0.00 | 0.01 | 0.01 | 63 | 880.2 |
| 20260506210043 | 62 | 131 | 6.0 | 16.0 | 0.00 | 0.01 | 0.01 | 63 | 880.1 |
| 20260506204534 | 62 | 103 | 8.0 | 13.0 | 0.00 | 0.01 | 0.01 | 62 | 880.2 |
| 20260506203034 | 62 | 132 | 8.0 | 12.0 | 0.00 | 0.01 | 0.01 | 64 | 880.2 |
| 20260506201537 | 62 | 107 | 8.0 | 12.0 | 0.00 | 0.01 | 0.01 | 63 | 880.3 |
| 20260506200033 | 61 | 76 | 7.0 | 11.0 | 0.00 | 0.02 | 0.01 | 62 | 880.4 |
| 20260506194531 | 61 | 132 | 6.0 | 13.0 | 0.00 | 0.02 | 0.01 | 65 | 880.4 |
| 20260506193044 | 61 | 114 | 6.0 | 11.0 | 0.00 | 0.02 | 0.01 | 65 | 880.5 |
| 20260506191530 | 61 | 119 | 8.0 | 12.0 | 0.00 | 0.02 | 0.01 | 66 | 880.5 |
| 20260506190030 | 62 | 153 | 7.0 | 11.0 | 0.00 | 0.08 | 0.01 | 63 | 880.5 |
| 20260506184531 | 62 | 107 | 2.0 | 12.0 | 0.00 | 0.08 | 0.01 | 52 | 880.6 |
| 20260506183028 | 62 | 136 | 5.0 | 9.0 | 0.00 | 0.08 | 0.01 | 60 | 880.6 |
| 20260506181536 | 60 | 243 | 3.0 | 10.0 | 0.00 | 0.08 | 0.01 | 49 | 880.7 |
| 20260506180021 | 59 | 167 | 4.0 | 10.0 | 0.00 | 0.16 | 0.01 | 62 | 880.7 |
| 20260506174519 | 58 | 166 | 5.0 | 10.0 | 0.00 | 0.16 | 0.01 | 61 | 880.7 |
| 20260506173019 | 57 | 137 | 6.0 | 10.0 | 0.00 | 0.16 | 0.01 | 66 | 880.6 |
| 20260506171517 | 57 | 141 | 5.0 | 10.0 | 0.00 | 0.16 | 0.01 | 67 | 880.6 |
| 20260506170015 | 57 | 165 | 5.0 | 9.0 | 0.00 | 0.21 | 0.01 | 68 | 880.4 |
| 20260506164513 | 57 | 144 | 6.0 | 10.0 | 0.00 | 0.21 | 0.01 | 61 | 880.3 |
| 20260506163015 | 56 | 155 | 4.0 | 8.0 | 0.00 | 0.21 | 0.01 | 62 | 880.3 |
| 20260506161506 | 55 | 105 | 4.0 | 7.0 | 0.00 | 0.21 | 0.01 | 61 | 880.1 |
| 20260506160003 | 54 | 157 | 4.0 | 7.0 | 0.00 | 0.25 | 0.01 | 67 | 880.0 |
| 20260506154613 | 53 | 136 | 4.0 | 7.0 | 0.00 | 0.25 | 0.01 | 70 | 880.0 |
| 20260506153056 | 52 | 147 | 4.0 | 7.0 | 0.00 | 0.25 | 0.01 | 71 | 879.9 |
| 20260506151555 | 52 | 103 | 5.0 | 7.0 | 0.01 | 0.25 | 0.01 | 69 | 879.9 |
| 20260506150054 | 51 | 132 | 4.0 | 8.0 | 0.01 | 0.32 | 0.01 | 70 | 879.9 |
| 20260506144554 | 50 | 108 | 4.0 | 10.0 | 0.01 | 0.32 | 0.01 | 71 | 879.7 |
| 20260506143045 | 47 | 140 | 3.0 | 7.0 | 0.01 | 0.32 | 0.01 | 81 | 879.6 |
| 20260506141541 | 45 | 296 | 0.0 | 4.0 | 0.00 | 0.31 | 0.00 | 86 | 879.3 |
| 20260506140038 | 44 | 269 | 1.0 | 4.0 | 0.00 | 0.39 | 0.00 | 89 | 879.5 |
| 20260506134533 | 41 | 78 | 0.0 | 2.0 | 0.00 | 0.39 | 0.00 | 90 | 879.3 |
| 20260506133038 | 41 | 153 | 2.0 | 7.0 | 0.00 | 0.39 | 0.00 | 90 | 879.1 |
| 20260506131534 | 41 | 163 | 2.0 | 8.0 | 0.00 | 0.39 | 0.00 | 89 | 879.0 |
| 20260506130029 | 41 | 86 | 5.0 | 11.0 | 0.00 | 0.50 | 0.00 | 89 | 878.7 |
| 20260506124527 | 41 | 80 | 6.0 | 10.0 | 0.00 | 0.50 | 0.00 | 88 | 878.6 |
| 20260506123026 | 41 | 94 | 6.0 | 10.0 | 0.00 | 0.50 | 0.00 | 90 | 878.5 |
| 20260506121525 | 41 | 82 | 5.0 | 10.0 | 0.00 | 0.50 | 0.00 | 89 | 878.4 |
| 20260506120025 | 41 | 84 | 6.0 | 11.0 | 0.00 | 0.53 | 0.00 | 90 | 878.4 |
| 20260506114527 | 41 | 90 | 4.0 | 9.0 | 0.00 | 0.53 | 0.00 | 90 | 878.4 |
| 20260506113023 | 41 | 130 | 6.0 | 14.0 | 0.00 | 0.53 | 0.00 | 91 | 878.3 |
| 20260506111521 | 41 | 88 | 5.0 | 10.0 | 0.00 | 0.53 | 0.00 | 91 | 878.2 |
| 20260506110020 | 41 | 127 | 4.0 | 9.0 | 0.00 | 0.57 | 0.00 | 92 | 878.3 |
| 20260506104540 | 40 | 109 | 7.0 | 12.0 | 0.00 | 0.57 | 0.00 | 95 | 878.2 |
| 20260506103017 | 40 | 112 | 5.0 | 11.0 | 0.00 | 0.57 | 0.00 | 95 | 878.3 |
| 20260506101517 | 40 | 72 | 5.0 | 11.0 | 0.00 | 0.57 | 0.00 | 95 | 878.3 |
| 20260506100018 | 40 | 111 | 7.0 | 12.0 | 0.00 | 0.64 | 0.00 | 95 | 878.2 |
| 20260506094515 | 40 | 116 | 7.0 | 13.0 | 0.00 | 0.64 | 0.00 | 95 | 878.2 |
| 20260506093014 | 40 | 87 | 6.0 | 11.0 | 0.00 | 0.64 | 0.00 | 96 | 878.2 |
| 20260506091513 | 39 | 124 | 5.0 | 12.0 | 0.00 | 0.64 | 0.00 | 95 | 878.2 |
| 20260506090011 | 39 | 103 | 6.0 | 10.0 | 0.00 | 0.66 | 0.00 | 96 | 878.2 |
| 20260506084509 | 38 | 119 | 5.0 | 9.0 | 0.00 | 0.66 | 0.00 | 96 | 878.4 |
| 20260506083018 | 38 | 138 | 7.0 | 11.0 | 0.00 | 0.66 | 0.00 | 96 | 878.5 |
| 20260506081509 | 38 | 125 | 7.0 | 12.0 | 0.00 | 0.66 | 0.00 | 96 | 878.6 |
| 20260506073059 | 40 | 125 | 9.0 | 16.0 | 0.00 | 0.66 | 0.00 | 97 | 878.7 |